Weather observations for the past three days for
Doylestown, Doylestown Airport
Imperial (Metric)
Date Time (edt) Wind (mph) Vis. (mi.) Weather Sky Cond. Temperature (ºF) Relative Humidity Wind Chill (°F) Heat Index (°F) Pressure Precipitation (in)
Air Dwpt 6 hour altimeter (in) sea level (mb) 1 hr 3 hr 6 hr
Max. Min.
20 03:54 Calm 10.00 Fair CLR 66.9 62.1 84% 30.32 1026.2
20 02:54 S 5 10.00 Fair CLR 68 62.1 81% 30.31 1025.8
20 01:54 Calm 10.00 Fair CLR 70 61 84 69.1 73% 30.32 1026.2
20 00:54 SW 3 10.00 Fair CLR 72 61 68% 30.33 1026.4
19 23:54 S 6 10.00 Fair CLR 73.9 61 64% 30.34 1026.7
19 22:54 S 6 10.00 Fair CLR 77 62.1 60% 79 30.34 1026.8
19 21:54 SW 5 10.00 Fair CLR 79 57.9 49% 80 30.33 1026.4
19 20:54 S 6 10.00 Fair CLR 81 57 44% 81 30.31 1025.7
19 19:54 S 7 10.00 Fair CLR 84 63 90 84 49% 85 30.3 1025.6
19 18:54 SW 8 10.00 Fair CLR 88 66 48% 90 30.3 1025.3
19 17:54 Vrbl 5 10.00 Fair CLR 88 66.9 50% 91 30.29 1025.0
19 16:54 S 5 10.00 A Few Clouds FEW055 88 66.9 50% 91 30.3 1025.5
19 15:54 Vrbl 3 10.00 A Few Clouds FEW049 88 68 52% 92 30.32 1025.9
19 14:54 S 8 10.00 A Few Clouds FEW044 89.1 70 53% 94 30.31 1025.9
19 13:54 S 7 10.00 Fair CLR 88 69.1 88 72 54% 92 30.33 1026.3
19 12:54 SE 6 10.00 Fair CLR 84.9 68 57% 88 30.34 1026.8
19 11:54 S 3 10.00 Fair CLR 82.9 68 61% 86 30.36 1027.3
19 10:54 SW 5 10.00 Fair CLR 82 68 63% 85 30.36 1027.5
19 09:54 Vrbl 5 10.00 Fair CLR 77 66.9 71% 79 30.38 1028.0
19 08:54 S 3 10.00 Fair CLR 73.9 66.9 79% 30.37 1027.9
19 07:54 SW 5 10.00 Fair CLR 72 66 72 66.9 82% 30.37 1027.7
19 06:54 Calm 10.00 Fair CLR 70 64.9 84% 30.35 1027.1
19 05:54 S 5 10.00 Fair CLR 69.1 64 84% 30.33 1026.3
19 04:54 Calm 10.00 Fair CLR 68 63 84% 30.32 1026.0
19 03:54 S 3 10.00 Fair CLR 70 63 79% 30.31 1025.6
Date Time (edt) Wind (mph) Vis. (mi.) Weather Sky Cond. Air Dwpt Max. Min. Relative Humidity Wind Chill (°F) Heat Index (°F) altimeter (in) sea level (mb) 1 hr 3 hr 6 hr
6 hour
Temperature (ºF) Pressure Precipitation (in)